Time,TemperatureF,DewpointF,PressureIn,WindDirection,WindDirectionDegrees,WindSpeedMPH,WindSpeedGustMPH,Humidity,HourlyPrecipIn,Conditions,Clouds,dailyrainin,SoftwareType,DateUTC
2013-06-15 00:09:00,53.2,53.0,29.85,SSE,148,0.0,0.0,99,0.00,,,0.00,weatherlink.com 1.10,2013-06-15 04:09:00,
2013-06-15 00:24:00,52.4,52.0,29.85,SSE,148,0.0,0.0,99,0.00,,,0.00,weatherlink.com 1.10,2013-06-15 04:24:00,
2013-06-15 00:39:00,52.0,52.0,29.85,SSE,148,0.0,0.0,99,0.00,,,0.00,weatherlink.com 1.10,2013-06-15 04:39:00,
2013-06-15 00:54:00,51.8,52.0,29.86,SSE,148,0.0,0.0,99,0.00,,,0.00,weatherlink.com 1.10,2013-06-15 04:54:00,
2013-06-15 01:09:00,51.2,51.0,29.85,SSE,148,0.0,0.0,98,0.00,,,0.00,weatherlink.com 1.10,2013-06-15 05:09:00,
2013-06-15 01:24:00,51.2,51.0,29.86,SSE,148,0.0,0.0,99,0.00,,,0.00,weatherlink.com 1.10,2013-06-15 05:24:00,
2013-06-15 01:39:00,50.8,51.0,29.86,SSE,148,0.0,0.0,99,0.00,,,0.00,weatherlink.com 1.10,2013-06-15 05:39:00,
2013-06-15 01:54:00,50.2,50.0,29.86,SSE,148,0.0,0.0,99,0.00,,,0.00,weatherlink.com 1.10,2013-06-15 05:54:00,
2013-06-15 02:09:00,50.7,51.0,29.86,SSE,148,0.0,0.0,99,0.00,,,0.00,weatherlink.com 1.10,2013-06-15 06:09:00,
2013-06-15 02:24:00,50.1,50.0,29.87,SSE,148,0.0,0.0,99,0.00,,,0.00,weatherlink.com 1.10,2013-06-15 06:24:00,
2013-06-15 02:39:00,49.6,49.0,29.88,SSE,148,0.0,0.0,99,0.00,,,0.00,weatherlink.com 1.10,2013-06-15 06:39:00,
2013-06-15 02:54:00,49.7,50.0,29.88,SSE,148,0.0,0.0,99,0.00,,,0.00,weatherlink.com 1.10,2013-06-15 06:54:00,
2013-06-15 03:09:00,49.7,50.0,29.88,SSE,148,0.0,0.0,99,0.00,,,0.00,weatherlink.com 1.10,2013-06-15 07:09:00,
2013-06-15 03:24:00,50.4,50.0,29.89,SSE,148,0.0,0.0,99,0.00,,,0.00,weatherlink.com 1.10,2013-06-15 07:24:00,
2013-06-15 03:39:00,49.7,50.0,29.89,SSE,148,0.0,0.0,99,0.00,,,0.00,weatherlink.com 1.10,2013-06-15 07:39:00,
2013-06-15 03:54:00,50.1,50.0,29.89,SSE,148,0.0,0.0,99,0.00,,,0.00,weatherlink.com 1.10,2013-06-15 07:54:00,
2013-06-15 04:09:00,49.5,49.0,29.89,SSE,148,0.0,0.0,99,0.00,,,0.00,weatherlink.com 1.10,2013-06-15 08:09:00,
2013-06-15 04:24:00,49.2,49.0,29.89,SSE,148,0.0,0.0,99,0.00,,,0.00,weatherlink.com 1.10,2013-06-15 08:24:00,
2013-06-15 04:39:00,48.6,48.0,29.89,SSE,148,0.0,0.0,99,0.00,,,0.00,weatherlink.com 1.10,2013-06-15 08:39:00,
2013-06-15 04:55:00,48.8,49.0,29.89,SSE,148,0.0,0.0,99,0.00,,,0.00,weatherlink.com 1.10,2013-06-15 08:55:00,
2013-06-15 05:10:00,48.6,48.0,29.90,SSE,148,0.0,0.0,99,0.00,,,0.00,weatherlink.com 1.10,2013-06-15 09:10:00,
2013-06-15 05:25:00,48.2,48.0,29.91,SSE,148,0.0,0.0,99,0.00,,,0.00,weatherlink.com 1.10,2013-06-15 09:25:00,
2013-06-15 05:40:00,48.9,49.0,29.91,SSE,148,0.0,0.0,100,0.00,,,0.00,weatherlink.com 1.10,2013-06-15 09:40:00,
2013-06-15 05:55:00,49.3,49.0,29.91,SSE,148,0.0,0.0,100,0.00,,,0.00,weatherlink.com 1.10,2013-06-15 09:55:00,
2013-06-15 06:10:00,49.8,50.0,29.91,SSE,148,0.0,0.0,100,0.00,,,0.00,weatherlink.com 1.10,2013-06-15 10:10:00,
2013-06-15 06:25:00,49.8,50.0,29.92,SSE,148,0.0,0.0,100,0.00,,,0.00,weatherlink.com 1.10,2013-06-15 10:25:00,
2013-06-15 06:40:00,49.8,50.0,29.92,SSE,148,0.0,0.0,100,0.00,,,0.00,weatherlink.com 1.10,2013-06-15 10:40:00,
2013-06-15 06:55:00,50.8,51.0,29.93,SSE,148,0.0,0.0,100,0.00,,,0.00,weatherlink.com 1.10,2013-06-15 10:55:00,
2013-06-15 07:10:00,52.0,52.0,29.93,SSE,148,0.0,0.0,100,0.00,,,0.00,weatherlink.com 1.10,2013-06-15 11:10:00,
2013-06-15 07:25:00,53.9,54.0,29.93,SSE,148,0.0,0.0,100,0.00,,,0.00,weatherlink.com 1.10,2013-06-15 11:25:00,
2013-06-15 07:40:00,55.6,56.0,29.94,SE,134,0.0,0.0,100,0.00,,,0.00,weatherlink.com 1.10,2013-06-15 11:40:00,
2013-06-15 07:55:00,57.5,58.0,29.94,NNE,32,0.0,0.0,100,0.00,,,0.00,weatherlink.com 1.10,2013-06-15 11:55:00,
2013-06-15 08:10:00,58.8,59.0,29.95,East,86,0.0,0.0,100,0.00,,,0.00,weatherlink.com 1.10,2013-06-15 12:10:00,
2013-06-15 08:25:00,60.7,61.0,29.95,NNE,15,0.0,2.0,100,0.00,,,0.00,weatherlink.com 1.10,2013-06-15 12:25:00,
2013-06-15 08:40:00,62.6,61.0,29.95,NW,315,1.0,2.0,94,0.00,,,0.00,weatherlink.com 1.10,2013-06-15 12:40:00,
2013-06-15 08:55:00,63.8,60.0,29.96,NNW,330,2.0,5.0,86,0.00,,,0.00,weatherlink.com 1.10,2013-06-15 12:55:00,
2013-06-15 09:10:00,64.8,59.0,29.97,NW,312,2.0,6.0,82,0.00,,,0.00,weatherlink.com 1.10,2013-06-15 13:10:00,
2013-06-15 09:25:00,65.9,59.0,29.97,NE,40,3.0,5.0,78,0.00,,,0.00,weatherlink.com 1.10,2013-06-15 13:25:00,
2013-06-15 09:40:00,66.8,59.0,29.97,West,281,1.0,3.0,75,0.00,,,0.00,weatherlink.com 1.10,2013-06-15 13:40:00,
2013-06-15 09:55:00,67.3,57.0,29.97,ENE,70,2.0,7.0,69,0.00,,,0.00,weatherlink.com 1.10,2013-06-15 13:55:00,
2013-06-15 10:10:00,68.1,60.0,29.97,NW,315,1.0,5.0,74,0.00,,,0.00,weatherlink.com 1.10,2013-06-15 14:10:00,
2013-06-15 10:25:00,68.4,56.0,29.96,NW,304,2.0,5.0,64,0.00,,,0.00,weatherlink.com 1.10,2013-06-15 14:25:00,
2013-06-15 10:41:00,68.5,56.0,29.96,NNW,335,1.0,8.0,65,0.00,,,0.00,weatherlink.com 1.10,2013-06-15 14:41:00,
2013-06-15 10:56:00,68.7,56.0,29.96,East,101,1.0,5.0,64,0.00,,,0.00,weatherlink.com 1.10,2013-06-15 14:56:00,
2013-06-15 11:11:00,69.2,56.0,29.96,NNW,335,2.0,7.0,63,0.00,,,0.00,weatherlink.com 1.10,2013-06-15 15:11:00,
2013-06-15 11:26:00,69.8,55.0,29.96,ENE,67,1.0,7.0,59,0.00,,,0.00,weatherlink.com 1.10,2013-06-15 15:26:00,
2013-06-15 11:41:00,70.6,56.0,29.96,NNW,333,5.0,6.0,60,0.00,,,0.00,weatherlink.com 1.10,2013-06-15 15:41:00,
2013-06-15 11:56:00,71.1,55.0,29.97,NNE,27,2.0,7.0,57,0.00,,,0.00,weatherlink.com 1.10,2013-06-15 15:56:00,
2013-06-15 12:11:00,71.8,57.0,29.96,NNE,33,3.0,7.0,59,0.00,,,0.00,weatherlink.com 1.10,2013-06-15 16:11:00,
2013-06-15 12:26:00,72.6,54.0,29.96,ESE,110,7.0,7.0,52,0.00,,,0.00,weatherlink.com 1.10,2013-06-15 16:26:00,
2013-06-15 12:41:00,73.4,54.0,29.95,NW,309,3.0,8.0,51,0.00,,,0.00,weatherlink.com 1.10,2013-06-15 16:41:00,
2013-06-15 12:56:00,73.9,53.0,29.95,NNW,335,1.0,7.0,49,0.00,,,0.00,weatherlink.com 1.10,2013-06-15 16:56:00,
2013-06-15 13:11:00,74.3,53.0,29.95,NE,40,0.0,5.0,47,0.00,,,0.00,weatherlink.com 1.10,2013-06-15 17:11:00,
2013-06-15 13:26:00,74.9,55.0,29.95,NNW,329,3.0,6.0,50,0.00,,,0.00,weatherlink.com 1.10,2013-06-15 17:26:00,
2013-06-15 13:41:00,75.4,53.0,29.94,ENE,63,1.0,7.0,45,0.00,,,0.00,weatherlink.com 1.10,2013-06-15 17:41:00,
2013-06-15 13:56:00,75.0,49.0,29.94,East,85,2.0,6.0,40,0.00,,,0.00,weatherlink.com 1.10,2013-06-15 17:56:00,
2013-06-15 14:11:00,75.6,51.0,29.93,NNW,336,3.0,9.0,43,0.00,,,0.00,weatherlink.com 1.10,2013-06-15 18:11:00,
2013-06-15 14:26:00,75.8,51.0,29.93,NE,40,3.0,7.0,42,0.00,,,0.00,weatherlink.com 1.10,2013-06-15 18:26:00,
2013-06-15 14:41:00,76.8,52.0,29.92,WNW,291,0.0,4.0,42,0.00,,,0.00,weatherlink.com 1.10,2013-06-15 18:41:00,
2013-06-15 14:56:00,77.0,55.0,29.92,NW,314,2.0,5.0,47,0.00,,,0.00,weatherlink.com 1.10,2013-06-15 18:56:00,
2013-06-15 15:11:00,76.6,52.0,29.92,East,85,0.0,6.0,42,0.00,,,0.00,weatherlink.com 1.10,2013-06-15 19:11:00,
2013-06-15 15:26:00,77.5,53.0,29.91,NNW,330,1.0,8.0,43,0.00,,,0.00,weatherlink.com 1.10,2013-06-15 19:26:00,
2013-06-15 15:41:00,77.9,52.0,29.91,NNE,26,3.0,6.0,41,0.00,,,0.00,weatherlink.com 1.10,2013-06-15 19:41:00,
2013-06-15 15:56:00,77.5,54.0,29.91,ESE,122,2.0,6.0,45,0.00,,,0.00,weatherlink.com 1.10,2013-06-15 19:56:00,
2013-06-15 16:11:00,77.9,54.0,29.90,NW,321,2.0,5.0,43,0.00,,,0.00,weatherlink.com 1.10,2013-06-15 20:11:00,
2013-06-15 16:26:00,78.5,54.0,29.90,West,271,2.0,5.0,43,0.00,,,0.00,weatherlink.com 1.10,2013-06-15 20:26:00,
2013-06-15 16:41:00,78.1,52.0,29.90,NNW,328,2.0,6.0,40,0.00,,,0.00,weatherlink.com 1.10,2013-06-15 20:41:00,
2013-06-15 16:56:00,78.3,53.0,29.90,East,94,0.0,5.0,42,0.00,,,0.00,weatherlink.com 1.10,2013-06-15 20:56:00,
2013-06-15 17:11:00,78.8,54.0,29.90,NW,322,0.0,5.0,42,0.00,,,0.00,weatherlink.com 1.10,2013-06-15 21:11:00,
2013-06-15 17:26:00,77.2,50.0,29.90,ESE,103,2.0,6.0,39,0.00,,,0.00,weatherlink.com 1.10,2013-06-15 21:26:00,
2013-06-15 17:41:00,76.6,53.0,29.90,NW,314,1.0,3.0,44,0.00,,,0.00,weatherlink.com 1.10,2013-06-15 21:41:00,
2013-06-15 17:56:00,75.8,55.0,29.90,NE,53,0.0,4.0,48,0.00,,,0.00,weatherlink.com 1.10,2013-06-15 21:56:00,
2013-06-15 18:11:00,75.0,54.0,29.90,SE,126,0.0,2.0,49,0.00,,,0.00,weatherlink.com 1.10,2013-06-15 22:11:00,
2013-06-15 18:26:00,74.4,56.0,29.90,SE,136,0.0,1.0,53,0.00,,,0.00,weatherlink.com 1.10,2013-06-15 22:26:00,
2013-06-15 18:41:00,72.9,57.0,29.90,East,85,0.0,0.0,57,0.00,,,0.00,weatherlink.com 1.10,2013-06-15 22:41:00,
2013-06-15 18:56:00,71.6,57.0,29.89,East,85,0.0,0.0,61,0.00,,,0.00,weatherlink.com 1.10,2013-06-15 22:56:00,
2013-06-15 19:11:00,70.3,58.0,29.89,East,84,0.0,0.0,66,0.00,,,0.00,weatherlink.com 1.10,2013-06-15 23:11:00,
2013-06-15 19:27:00,69.1,59.0,29.90,East,84,0.0,0.0,69,0.00,,,0.00,weatherlink.com 1.10,2013-06-15 23:27:00,
2013-06-15 19:42:00,67.7,61.0,29.90,East,85,0.0,0.0,80,0.00,,,0.00,weatherlink.com 1.10,2013-06-15 23:42:00,
2013-06-15 19:57:00,65.6,60.0,29.91,East,84,0.0,0.0,81,0.00,,,0.00,weatherlink.com 1.10,2013-06-15 23:57:00,
2013-06-15 20:12:00,63.7,59.0,29.91,East,85,0.0,0.0,84,0.00,,,0.00,weatherlink.com 1.10,2013-06-16 00:12:00,
2013-06-15 20:27:00,62.4,59.0,29.91,East,84,0.0,0.0,87,0.00,,,0.00,weatherlink.com 1.10,2013-06-16 00:27:00,
2013-06-15 20:42:00,60.7,57.0,29.91,East,84,0.0,0.0,88,0.00,,,0.00,weatherlink.com 1.10,2013-06-16 00:42:00,
2013-06-15 20:57:00,59.4,57.0,29.92,East,85,0.0,0.0,91,0.00,,,0.00,weatherlink.com 1.10,2013-06-16 00:57:00,
2013-06-15 21:12:00,58.4,56.0,29.92,East,84,0.0,0.0,93,0.00,,,0.00,weatherlink.com 1.10,2013-06-16 01:12:00,
2013-06-15 21:27:00,57.6,56.0,29.93,East,84,0.0,0.0,94,0.00,,,0.00,weatherlink.com 1.10,2013-06-16 01:27:00,
2013-06-15 21:42:00,56.8,55.0,29.93,East,85,0.0,0.0,95,0.00,,,0.00,weatherlink.com 1.10,2013-06-16 01:42:00,
2013-06-15 21:57:00,56.3,55.0,29.94,East,84,0.0,0.0,96,0.00,,,0.00,weatherlink.com 1.10,2013-06-16 01:57:00,
2013-06-15 22:12:00,55.7,55.0,29.94,East,85,0.0,0.0,96,0.00,,,0.00,weatherlink.com 1.10,2013-06-16 02:12:00,
2013-06-15 22:27:00,55.3,55.0,29.95,East,85,0.0,0.0,97,0.00,,,0.00,weatherlink.com 1.10,2013-06-16 02:27:00,
2013-06-15 22:42:00,55.0,54.0,29.95,East,85,0.0,0.0,97,0.00,,,0.00,weatherlink.com 1.10,2013-06-16 02:42:00,
2013-06-15 22:57:00,54.0,53.0,29.95,East,85,0.0,0.0,97,0.00,,,0.00,weatherlink.com 1.10,2013-06-16 02:57:00,
2013-06-15 23:12:00,53.5,53.0,29.96,East,84,0.0,0.0,97,0.00,,,0.00,weatherlink.com 1.10,2013-06-16 03:12:00,
2013-06-15 23:27:00,53.2,53.0,29.96,East,85,0.0,0.0,98,0.00,,,0.00,weatherlink.com 1.10,2013-06-16 03:27:00,
2013-06-15 23:42:00,53.0,53.0,29.96,East,85,0.0,0.0,98,0.00,,,0.00,weatherlink.com 1.10,2013-06-16 03:42:00,
2013-06-15 23:57:00,52.8,52.0,29.96,East,84,0.0,0.0,98,0.00,,,0.00,weatherlink.com 1.10,2013-06-16 03:57:00,